Time,TemperatureF,DewpointF,PressureIn,WindDirection,WindDirectionDegrees,WindSpeedMPH,WindSpeedGustMPH,Humidity,HourlyPrecipIn,Conditions,Clouds,dailyrainin,SoftwareType,DateUTC
2014-01-24 00:03:00,20.7,15.8,30.51,WNW,301,0.0,0.0,81,-99.99,,,-99.99,RaspberryPi,2014-01-24 07:03:00,
2014-01-24 00:09:00,19.1,13.9,30.51,NNE,18,0.2,0.0,80,-99.99,,,-99.99,RaspberryPi,2014-01-24 07:09:00,
2014-01-24 00:14:00,19.1,13.9,30.51,NNW,330,0.8,0.0,80,-99.99,,,-99.99,RaspberryPi,2014-01-24 07:14:00,
2014-01-24 00:19:00,19.1,13.9,30.47,West,261,0.9,0.0,80,-99.99,,,-99.99,RaspberryPi,2014-01-24 07:19:00,
2014-01-24 00:24:00,19.1,13.9,30.47,NW,322,1.8,0.0,80,-99.99,,,-99.99,RaspberryPi,2014-01-24 07:24:00,
2014-01-24 00:30:00,19.1,13.9,30.47,NNW,330,0.8,0.0,80,-99.99,,,-99.99,RaspberryPi,2014-01-24 07:30:00,
2014-01-24 00:35:00,19.1,14.2,30.47,WNW,288,1.7,0.0,81,-99.99,,,-99.99,RaspberryPi,2014-01-24 07:35:00,
2014-01-24 00:40:00,20.7,16.1,30.47,NW,310,0.6,0.0,82,-99.99,,,-99.99,RaspberryPi,2014-01-24 07:40:00,
2014-01-24 00:46:00,20.7,16.1,30.51,NNW,346,0.0,0.0,82,-99.99,,,-99.99,RaspberryPi,2014-01-24 07:46:00,
2014-01-24 00:51:00,19.1,14.2,30.51,North,1,0.1,0.0,81,-99.99,,,-99.99,RaspberryPi,2014-01-24 07:51:00,
2014-01-24 00:56:00,19.1,13.9,30.51,WNW,293,1.3,0.0,80,-99.99,,,-99.99,RaspberryPi,2014-01-24 07:56:00,
2014-01-24 01:01:00,19.1,13.9,30.47,NNW,330,0.0,0.0,80,-99.99,,,-99.99,RaspberryPi,2014-01-24 08:01:00,
2014-01-24 01:07:00,19.1,13.9,30.41,North,5,0.3,0.0,80,-99.99,,,-99.99,RaspberryPi,2014-01-24 08:07:00,
2014-01-24 01:12:00,19.1,13.9,30.51,West,263,0.0,0.0,80,-99.99,,,-99.99,RaspberryPi,2014-01-24 08:12:00,
2014-01-24 01:17:00,19.1,13.9,30.47,NNW,340,0.0,0.0,80,-99.99,,,-99.99,RaspberryPi,2014-01-24 08:17:00,
2014-01-24 01:22:00,19.1,13.9,30.47,West,262,0.0,0.0,80,-99.99,,,-99.99,RaspberryPi,2014-01-24 08:22:00,
2014-01-24 01:28:00,19.1,13.7,30.44,North,349,0.7,0.0,79,-99.99,,,-99.99,RaspberryPi,2014-01-24 08:28:00,
2014-01-24 01:33:00,19.1,13.9,30.47,WSW,258,1.6,0.0,80,-99.99,,,-99.99,RaspberryPi,2014-01-24 08:33:00,
2014-01-24 01:38:00,19.1,13.9,30.51,WNW,284,1.1,0.0,80,-99.99,,,-99.99,RaspberryPi,2014-01-24 08:38:00,
2014-01-24 01:43:00,19.1,13.9,30.51,WNW,303,1.0,0.0,80,-99.99,,,-99.99,RaspberryPi,2014-01-24 08:43:00,
2014-01-24 01:49:00,19.1,13.9,30.51,NW,323,0.0,0.0,80,-99.99,,,-99.99,RaspberryPi,2014-01-24 08:49:00,
2014-01-24 01:54:00,19.1,13.9,30.51,WNW,285,1.6,0.0,80,-99.99,,,-99.99,RaspberryPi,2014-01-24 08:54:00,
2014-01-24 01:59:00,19.1,13.9,30.51,NW,304,0.1,0.0,80,-99.99,,,-99.99,RaspberryPi,2014-01-24 08:59:00,
2014-01-24 02:05:00,-999.9,99.9,30.51,West,270,0.0,0.0,80,-99.99,,,-99.99,RaspberryPi,2014-01-24 09:05:00,
2014-01-24 02:10:00,17.5,12.4,30.51,West,265,1.0,0.0,80,-99.99,,,-99.99,RaspberryPi,2014-01-24 09:10:00,
2014-01-24 02:15:00,15.9,10.5,30.47,WSW,257,0.0,0.0,79,-99.99,,,-99.99,RaspberryPi,2014-01-24 09:15:00,
2014-01-24 02:20:00,17.5,12.4,30.51,West,267,1.5,0.0,80,-99.99,,,-99.99,RaspberryPi,2014-01-24 09:20:00,
2014-01-24 02:26:00,17.5,12.7,30.47,NW,320,1.1,0.0,81,-99.99,,,-99.99,RaspberryPi,2014-01-24 09:26:00,
2014-01-24 02:31:00,17.5,12.7,30.47,WSW,257,0.0,0.0,81,-99.99,,,-99.99,RaspberryPi,2014-01-24 09:31:00,
2014-01-24 02:36:00,17.5,12.7,30.51,SW,222,1.1,0.0,81,-99.99,,,-99.99,RaspberryPi,2014-01-24 09:36:00,
2014-01-24 02:41:00,17.5,12.7,30.47,NW,323,1.4,0.0,81,-99.99,,,-99.99,RaspberryPi,2014-01-24 09:41:00,
2014-01-24 02:47:00,17.5,12.9,30.47,West,268,0.9,0.0,82,-99.99,,,-99.99,RaspberryPi,2014-01-24 09:47:00,
2014-01-24 02:52:00,17.5,12.9,30.47,NW,305,0.0,0.0,82,-99.99,,,-99.99,RaspberryPi,2014-01-24 09:52:00,
2014-01-24 02:57:00,17.5,12.9,30.47,SW,222,0.0,0.0,82,-99.99,,,-99.99,RaspberryPi,2014-01-24 09:57:00,
2014-01-24 03:02:00,15.9,11.4,30.47,West,266,0.0,0.0,82,-99.99,,,-99.99,RaspberryPi,2014-01-24 10:02:00,
2014-01-24 03:08:00,15.9,11.4,30.54,NW,311,1.1,0.0,82,-99.99,,,-99.99,RaspberryPi,2014-01-24 10:08:00,
2014-01-24 03:13:00,15.9,11.4,30.51,WNW,285,1.2,0.0,82,-99.99,,,-99.99,RaspberryPi,2014-01-24 10:13:00,
2014-01-24 03:18:00,15.9,11.6,30.54,WNW,286,1.6,0.0,83,-99.99,,,-99.99,RaspberryPi,2014-01-24 10:18:00,
2014-01-24 03:24:00,15.9,11.6,30.54,West,261,1.6,0.0,83,-99.99,,,-99.99,RaspberryPi,2014-01-24 10:24:00,
2014-01-24 03:29:00,15.9,11.6,30.51,NW,315,0.4,0.0,83,-99.99,,,-99.99,RaspberryPi,2014-01-24 10:29:00,
2014-01-24 03:34:00,15.9,11.6,30.54,SW,222,1.4,0.0,83,-99.99,,,-99.99,RaspberryPi,2014-01-24 10:34:00,
2014-01-24 03:39:00,15.9,11.9,30.51,NW,312,2.9,0.0,84,-99.99,,,-99.99,RaspberryPi,2014-01-24 10:39:00,
2014-01-24 03:45:00,15.9,11.9,30.54,NW,315,2.0,0.0,84,-99.99,,,-99.99,RaspberryPi,2014-01-24 10:45:00,
2014-01-24 03:50:00,15.9,11.9,30.54,WNW,295,2.2,0.0,84,-99.99,,,-99.99,RaspberryPi,2014-01-24 10:50:00,
2014-01-24 03:55:00,15.9,11.9,30.47,WNW,292,2.6,0.0,84,-99.99,,,-99.99,RaspberryPi,2014-01-24 10:55:00,
2014-01-24 04:00:00,15.9,12.2,30.47,WSW,250,0.8,0.0,85,-99.99,,,-99.99,RaspberryPi,2014-01-24 11:00:00,
2014-01-24 04:06:00,15.9,12.4,30.54,WNW,294,0.9,0.0,86,-99.99,,,-99.99,RaspberryPi,2014-01-24 11:06:00,
2014-01-24 04:11:00,15.9,12.2,30.51,WNW,287,0.0,0.0,85,-99.99,,,-99.99,RaspberryPi,2014-01-24 11:11:00,
2014-01-24 04:16:00,15.9,12.2,30.54,WSW,256,0.6,1.7,85,-99.99,,,-99.99,RaspberryPi,2014-01-24 11:16:00,
2014-01-24 04:22:00,15.9,12.2,30.54,WNW,285,1.9,0.0,85,-99.99,,,-99.99,RaspberryPi,2014-01-24 11:22:00,
2014-01-24 04:27:00,15.9,12.2,30.51,WNW,299,0.4,0.0,85,-99.99,,,-99.99,RaspberryPi,2014-01-24 11:27:00,
2014-01-24 04:32:00,15.9,12.4,30.47,WNW,285,2.2,0.0,86,-99.99,,,-99.99,RaspberryPi,2014-01-24 11:32:00,
2014-01-24 04:37:00,15.9,12.4,30.47,West,281,2.5,0.0,86,-99.99,,,-99.99,RaspberryPi,2014-01-24 11:37:00,
2014-01-24 04:43:00,15.9,12.7,30.47,NW,310,2.7,0.0,87,-99.99,,,-99.99,RaspberryPi,2014-01-24 11:43:00,
2014-01-24 04:48:00,17.5,14.5,30.54,WSW,245,2.0,0.0,88,-99.99,,,-99.99,RaspberryPi,2014-01-24 11:48:00,
2014-01-24 04:53:00,15.9,13.0,30.51,NW,305,0.4,0.0,88,-99.99,,,-99.99,RaspberryPi,2014-01-24 11:53:00,
2014-01-24 04:58:00,15.9,13.0,30.51,WNW,287,1.5,0.0,88,-99.99,,,-99.99,RaspberryPi,2014-01-24 11:58:00,
2014-01-24 05:04:00,17.5,14.8,30.47,NW,319,0.6,0.0,89,-99.99,,,-99.99,RaspberryPi,2014-01-24 12:04:00,
2014-01-24 05:09:00,17.5,14.8,30.47,WSW,240,0.0,0.0,89,-99.99,,,-99.99,RaspberryPi,2014-01-24 12:09:00,
2014-01-24 05:14:00,17.5,14.8,30.51,West,280,0.7,0.0,89,-99.99,,,-99.99,RaspberryPi,2014-01-24 12:14:00,
2014-01-24 05:20:00,17.5,15.1,30.57,WNW,283,1.1,0.0,90,-99.99,,,-99.99,RaspberryPi,2014-01-24 12:20:00,
2014-01-24 05:25:00,15.9,13.2,30.51,WNW,295,0.0,0.0,89,-99.99,,,-99.99,RaspberryPi,2014-01-24 12:25:00,
2014-01-24 05:30:00,15.9,13.2,30.54,West,260,0.2,0.0,89,-99.99,,,-99.99,RaspberryPi,2014-01-24 12:30:00,
2014-01-24 05:35:00,15.9,13.5,30.51,NW,314,1.3,0.0,90,-99.99,,,-99.99,RaspberryPi,2014-01-24 12:35:00,
2014-01-24 05:41:00,15.9,13.5,30.51,SW,229,0.3,0.0,90,-99.99,,,-99.99,RaspberryPi,2014-01-24 12:41:00,
2014-01-24 05:46:00,15.9,13.5,30.51,WNW,283,0.0,0.0,90,-99.99,,,-99.99,RaspberryPi,2014-01-24 12:46:00,
2014-01-24 05:51:00,15.9,13.5,30.51,WNW,301,0.5,0.0,90,-99.99,,,-99.99,RaspberryPi,2014-01-24 12:51:00,
2014-01-24 05:56:00,15.9,13.5,30.51,North,554,1.4,0.0,90,-99.99,,,-99.99,RaspberryPi,2014-01-24 12:56:00,
2014-01-24 06:02:00,14.3,11.6,30.54,WNW,292,1.4,0.0,89,-99.99,,,-99.99,RaspberryPi,2014-01-24 13:02:00,
2014-01-24 06:07:00,15.9,13.5,30.47,WNW,303,0.1,0.0,90,-99.99,,,-99.99,RaspberryPi,2014-01-24 13:07:00,
2014-01-24 06:12:00,15.9,13.5,30.47,NW,319,0.3,0.0,90,-99.99,,,-99.99,RaspberryPi,2014-01-24 13:12:00,
2014-01-24 06:17:00,15.9,13.5,30.51,West,267,1.4,0.0,90,-99.99,,,-99.99,RaspberryPi,2014-01-24 13:17:00,
2014-01-24 06:23:00,15.9,13.5,30.47,West,280,1.6,0.0,90,-99.99,,,-99.99,RaspberryPi,2014-01-24 13:23:00,
2014-01-24 06:28:00,15.9,13.5,30.47,WNW,290,2.0,0.0,90,-99.99,,,-99.99,RaspberryPi,2014-01-24 13:28:00,
2014-01-24 06:33:00,15.9,13.5,30.51,WNW,294,2.4,0.0,90,-99.99,,,-99.99,RaspberryPi,2014-01-24 13:33:00,
2014-01-24 06:39:00,15.9,13.5,30.51,West,261,2.5,0.0,90,-99.99,,,-99.99,RaspberryPi,2014-01-24 13:39:00,
2014-01-24 06:44:00,15.9,13.5,30.54,WSW,247,1.0,0.0,90,-99.99,,,-99.99,RaspberryPi,2014-01-24 13:44:00,
2014-01-24 06:49:00,15.9,13.5,30.54,West,266,0.0,0.0,90,-99.99,,,-99.99,RaspberryPi,2014-01-24 13:49:00,
2014-01-24 06:54:00,15.9,13.5,30.51,West,264,1.4,0.0,90,-99.99,,,-99.99,RaspberryPi,2014-01-24 13:54:00,
2014-01-24 07:00:00,15.9,13.7,30.51,West,262,1.9,0.0,91,-99.99,,,-99.99,RaspberryPi,2014-01-24 14:00:00,
2014-01-24 07:05:00,15.9,13.7,30.47,WNW,291,2.5,0.0,91,-99.99,,,-99.99,RaspberryPi,2014-01-24 14:05:00,
2014-01-24 07:11:00,15.9,13.7,30.47,WNW,302,0.7,0.0,91,-99.99,,,-99.99,RaspberryPi,2014-01-24 14:11:00,
2014-01-24 07:16:00,15.9,13.7,30.44,WNW,285,0.6,0.0,91,-99.99,,,-99.99,RaspberryPi,2014-01-24 14:16:00,
2014-01-24 07:21:00,15.9,13.7,30.47,NW,321,2.2,0.0,91,-99.99,,,-99.99,RaspberryPi,2014-01-24 14:21:00,
2014-01-24 07:26:00,15.9,13.7,30.54,West,265,1.0,0.0,91,-99.99,,,-99.99,RaspberryPi,2014-01-24 14:26:00,
2014-01-24 07:32:00,15.9,13.7,30.51,NW,320,2.9,0.0,91,-99.99,,,-99.99,RaspberryPi,2014-01-24 14:32:00,
2014-01-24 07:37:00,15.9,13.7,30.47,West,264,0.0,0.0,91,-99.99,,,-99.99,RaspberryPi,2014-01-24 14:37:00,
2014-01-24 07:42:00,15.9,13.7,30.54,NW,323,0.7,0.0,91,-99.99,,,-99.99,RaspberryPi,2014-01-24 14:42:00,
2014-01-24 07:47:00,15.9,13.7,30.47,WSW,243,0.4,0.0,91,-99.99,,,-99.99,RaspberryPi,2014-01-24 14:47:00,
2014-01-24 07:53:00,15.9,13.7,30.54,WNW,295,1.6,0.0,91,-99.99,,,-99.99,RaspberryPi,2014-01-24 14:53:00,
2014-01-24 07:58:00,15.9,13.7,30.47,West,279,0.7,0.0,91,-99.99,,,-99.99,RaspberryPi,2014-01-24 14:58:00,
2014-01-24 08:03:00,15.9,14.0,30.51,West,262,2.5,0.0,92,-99.99,,,-99.99,RaspberryPi,2014-01-24 15:03:00,
2014-01-24 08:08:00,15.9,14.2,30.54,WSW,250,0.1,0.0,93,-99.99,,,-99.99,RaspberryPi,2014-01-24 15:08:00,
2014-01-24 08:14:00,15.9,14.2,30.54,NW,313,0.3,0.0,93,-99.99,,,-99.99,RaspberryPi,2014-01-24 15:14:00,
2014-01-24 08:19:00,15.9,14.2,30.51,WNW,296,0.0,0.0,93,-99.99,,,-99.99,RaspberryPi,2014-01-24 15:19:00,
2014-01-24 08:24:00,15.9,14.2,30.54,WSW,237,0.1,0.0,93,-99.99,,,-99.99,RaspberryPi,2014-01-24 15:24:00,
2014-01-24 08:30:00,15.9,14.2,30.54,NW,322,0.0,0.0,93,-99.99,,,-99.99,RaspberryPi,2014-01-24 15:30:00,
2014-01-24 08:35:00,15.9,14.2,30.47,WNW,299,0.0,0.0,93,-99.99,,,-99.99,RaspberryPi,2014-01-24 15:35:00,
2014-01-24 08:40:00,15.9,14.2,30.54,West,268,0.5,0.0,93,-99.99,,,-99.99,RaspberryPi,2014-01-24 15:40:00,
2014-01-24 08:45:00,15.9,14.2,30.54,NW,306,0.1,0.0,93,-99.99,,,-99.99,RaspberryPi,2014-01-24 15:45:00,
2014-01-24 08:51:00,15.9,14.2,30.51,WNW,292,0.1,0.0,93,-99.99,,,-99.99,RaspberryPi,2014-01-24 15:51:00,
2014-01-24 08:56:00,17.5,15.8,30.47,WSW,250,0.0,0.0,93,-99.99,,,-99.99,RaspberryPi,2014-01-24 15:56:00,
2014-01-24 09:01:00,17.5,15.8,30.51,NNW,335,0.5,0.0,93,-99.99,,,-99.99,RaspberryPi,2014-01-24 16:01:00,
2014-01-24 09:07:00,19.1,17.4,30.47,North,8,1.1,0.0,93,-99.99,,,-99.99,RaspberryPi,2014-01-24 16:07:00,
2014-01-24 09:12:00,19.1,17.6,30.47,North,358,1.1,0.0,94,-99.99,,,-99.99,RaspberryPi,2014-01-24 16:12:00,
2014-01-24 09:17:00,19.1,17.6,30.51,NNW,334,0.4,0.0,94,-99.99,,,-99.99,RaspberryPi,2014-01-24 16:17:00,
2014-01-24 09:22:00,20.7,19.2,30.51,North,4,0.1,0.0,94,-99.99,,,-99.99,RaspberryPi,2014-01-24 16:22:00,
2014-01-24 09:28:00,20.7,19.2,30.54,WNW,302,0.1,0.0,94,-99.99,,,-99.99,RaspberryPi,2014-01-24 16:28:00,
2014-01-24 09:33:00,20.7,19.2,30.51,North,353,0.4,0.0,94,-99.99,,,-99.99,RaspberryPi,2014-01-24 16:33:00,
2014-01-24 09:38:00,22.3,21.1,30.54,NNW,327,0.5,0.0,95,-99.99,,,-99.99,RaspberryPi,2014-01-24 16:38:00,
2014-01-24 09:43:00,23.9,22.7,30.51,NNW,327,0.0,0.0,95,-99.99,,,-99.99,RaspberryPi,2014-01-24 16:43:00,
2014-01-24 09:49:00,23.9,22.7,30.44,NW,305,0.0,0.0,95,-99.99,,,-99.99,RaspberryPi,2014-01-24 16:49:00,
2014-01-24 09:54:00,23.9,22.7,30.51,NNW,335,0.0,0.0,95,-99.99,,,-99.99,RaspberryPi,2014-01-24 16:54:00,
2014-01-24 09:59:00,25.5,24.3,30.51,NNW,332,0.0,0.0,95,-99.99,,,-99.99,RaspberryPi,2014-01-24 16:59:00,
2014-01-24 10:04:00,25.5,24.3,30.47,NW,317,0.0,0.0,95,-99.99,,,-99.99,RaspberryPi,2014-01-24 17:04:00,
2014-01-24 10:10:00,27.1,25.9,30.47,NNW,334,0.0,0.0,95,-99.99,,,-99.99,RaspberryPi,2014-01-24 17:10:00,
2014-01-24 10:15:00,27.1,25.6,30.47,NW,323,0.0,0.0,94,-99.99,,,-99.99,RaspberryPi,2014-01-24 17:15:00,
2014-01-24 10:20:00,27.1,25.4,30.44,NW,317,0.8,0.0,93,-99.99,,,-99.99,RaspberryPi,2014-01-24 17:20:00,
2014-01-24 10:26:00,27.1,25.4,30.47,NNW,327,0.9,2.0,93,-99.99,,,-99.99,RaspberryPi,2014-01-24 17:26:00,
2014-01-24 10:31:00,27.1,24.8,30.47,NE,39,1.0,0.0,91,-99.99,,,-99.99,RaspberryPi,2014-01-24 17:31:00,
2014-01-24 10:36:00,27.1,24.0,30.47,North,1,1.3,0.0,88,-99.99,,,-99.99,RaspberryPi,2014-01-24 17:36:00,
2014-01-24 10:42:00,27.1,23.8,30.51,North,11,1.3,0.0,87,-99.99,,,-99.99,RaspberryPi,2014-01-24 17:42:00,
2014-01-24 10:47:00,27.1,23.5,30.44,NNE,15,0.0,0.0,86,-99.99,,,-99.99,RaspberryPi,2014-01-24 17:47:00,
2014-01-24 10:52:00,27.1,23.2,30.47,NNE,31,0.0,0.0,85,-99.99,,,-99.99,RaspberryPi,2014-01-24 17:52:00,
2014-01-24 10:57:00,28.7,24.5,30.47,NW,318,0.0,0.0,84,-99.99,,,-99.99,RaspberryPi,2014-01-24 17:57:00,
2014-01-24 11:03:00,28.6,24.4,30.47,NNW,342,0.0,0.0,84,-99.99,,,-99.99,RaspberryPi,2014-01-24 18:03:00,
2014-01-24 11:08:00,28.6,23.8,30.51,NNW,345,0.0,0.0,82,-99.99,,,-99.99,RaspberryPi,2014-01-24 18:08:00,
2014-01-24 11:13:00,28.6,23.5,30.47,North,353,0.0,0.0,81,-99.99,,,-99.99,RaspberryPi,2014-01-24 18:13:00,
2014-01-24 11:19:00,28.6,23.2,30.54,NE,37,0.0,0.0,80,-99.99,,,-99.99,RaspberryPi,2014-01-24 18:19:00,
2014-01-24 11:24:00,30.2,24.5,30.47,NE,37,0.0,0.0,79,-99.99,,,-99.99,RaspberryPi,2014-01-24 18:24:00,
2014-01-24 11:29:00,30.2,23.8,30.51,NE,35,0.0,0.0,77,-99.99,,,-99.99,RaspberryPi,2014-01-24 18:29:00,
2014-01-24 11:34:00,30.2,23.2,30.47,NNE,29,0.0,0.0,75,-99.99,,,-99.99,RaspberryPi,2014-01-24 18:34:00,
2014-01-24 11:40:00,30.2,22.6,30.47,North,2,0.0,0.0,73,-99.99,,,-99.99,RaspberryPi,2014-01-24 18:40:00,
2014-01-24 11:45:00,30.2,22.2,30.47,NNE,13,0.0,0.0,72,-99.99,,,-99.99,RaspberryPi,2014-01-24 18:45:00,
2014-01-24 11:50:00,30.2,21.6,30.47,NNE,16,0.0,0.0,70,-99.99,,,-99.99,RaspberryPi,2014-01-24 18:50:00,
2014-01-24 11:55:00,30.2,21.6,30.47,NNE,19,0.0,0.0,70,-99.99,,,-99.99,RaspberryPi,2014-01-24 18:55:00,
2014-01-24 12:01:00,30.2,20.9,30.51,NNW,333,0.0,0.0,68,-99.99,,,-99.99,RaspberryPi,2014-01-24 19:01:00,
2014-01-24 12:06:00,30.2,20.2,30.47,NNE,30,0.0,0.0,66,-99.99,,,-99.99,RaspberryPi,2014-01-24 19:06:00,
2014-01-24 12:11:00,30.2,18.3,30.47,North,5,0.0,0.0,61,-99.99,,,-99.99,RaspberryPi,2014-01-24 19:11:00,
2014-01-24 12:17:00,30.2,17.6,30.44,NNE,27,0.0,0.0,59,-99.99,,,-99.99,RaspberryPi,2014-01-24 19:17:00,
2014-01-24 12:22:00,31.8,19.1,30.47,WNW,293,0.0,0.0,59,-99.99,,,-99.99,RaspberryPi,2014-01-24 19:22:00,
2014-01-24 12:27:00,31.8,18.3,30.44,NW,311,0.0,0.0,57,-99.99,,,-99.99,RaspberryPi,2014-01-24 19:27:00,
2014-01-24 12:33:00,33.4,19.4,30.51,North,358,0.0,0.0,56,-99.99,,,-99.99,RaspberryPi,2014-01-24 19:33:00,
2014-01-24 12:38:00,33.4,18.5,30.47,NNE,15,0.0,0.0,54,-99.99,,,-99.99,RaspberryPi,2014-01-24 19:38:00,
2014-01-24 12:43:00,33.4,18.1,30.47,NW,314,0.0,0.0,53,-99.99,,,-99.99,RaspberryPi,2014-01-24 19:43:00,
2014-01-24 12:48:00,33.4,17.7,30.44,WSW,255,0.0,0.0,52,-99.99,,,-99.99,RaspberryPi,2014-01-24 19:48:00,
2014-01-24 12:54:00,33.4,17.2,30.44,NNW,344,0.0,0.0,51,-99.99,,,-99.99,RaspberryPi,2014-01-24 19:54:00,
2014-01-24 12:59:00,33.4,16.7,30.47,WNW,282,0.0,0.0,50,-99.99,,,-99.99,RaspberryPi,2014-01-24 19:59:00,
2014-01-24 13:04:00,35.0,17.8,30.51,West,269,0.0,0.0,49,-99.99,,,-99.99,RaspberryPi,2014-01-24 20:04:00,
2014-01-24 13:10:00,36.6,18.8,30.44,WNW,293,0.0,0.0,48,-99.99,,,-99.99,RaspberryPi,2014-01-24 20:10:00,
2014-01-24 13:15:00,36.6,18.8,30.47,NNW,333,0.0,0.0,48,-99.99,,,-99.99,RaspberryPi,2014-01-24 20:15:00,
2014-01-24 13:20:00,36.6,18.3,30.51,NNW,334,0.0,0.0,47,-99.99,,,-99.99,RaspberryPi,2014-01-24 20:20:00,
2014-01-24 13:25:00,38.2,19.8,30.41,NNW,337,0.0,0.0,47,-99.99,,,-99.99,RaspberryPi,2014-01-24 20:25:00,
2014-01-24 13:31:00,38.2,19.2,30.44,West,275,0.0,0.0,46,-99.99,,,-99.99,RaspberryPi,2014-01-24 20:31:00,
2014-01-24 13:36:00,39.8,20.7,30.44,WNW,293,0.0,0.0,46,-99.99,,,-99.99,RaspberryPi,2014-01-24 20:36:00,
2014-01-24 13:41:00,39.8,20.7,30.47,WNW,288,0.0,0.0,46,-99.99,,,-99.99,RaspberryPi,2014-01-24 20:41:00,
2014-01-24 13:47:00,39.8,20.2,30.44,NW,324,0.0,0.0,45,-99.99,,,-99.99,RaspberryPi,2014-01-24 20:47:00,
2014-01-24 13:52:00,39.8,20.2,30.41,WNW,284,0.0,0.0,45,-99.99,,,-99.99,RaspberryPi,2014-01-24 20:52:00,
2014-01-24 13:57:00,41.4,21.7,30.41,NW,311,0.0,0.0,45,-99.99,,,-99.99,RaspberryPi,2014-01-24 20:57:00,
2014-01-24 14:02:00,39.8,20.2,30.44,NNW,327,0.0,0.0,45,-99.99,,,-99.99,RaspberryPi,2014-01-24 21:02:00,
2014-01-24 14:08:00,39.8,20.2,30.44,WNW,291,0.0,0.0,45,-99.99,,,-99.99,RaspberryPi,2014-01-24 21:08:00,
2014-01-24 14:13:00,39.8,20.2,30.47,NNW,337,0.0,0.0,45,-99.99,,,-99.99,RaspberryPi,2014-01-24 21:13:00,
2014-01-24 14:18:00,38.2,18.7,30.47,NW,319,0.0,0.0,45,-99.99,,,-99.99,RaspberryPi,2014-01-24 21:18:00,
2014-01-24 14:24:00,39.8,20.2,30.41,NNW,343,0.0,0.0,45,-99.99,,,-99.99,RaspberryPi,2014-01-24 21:24:00,
2014-01-24 14:29:00,41.4,21.7,30.41,NW,318,0.0,0.0,45,-99.99,,,-99.99,RaspberryPi,2014-01-24 21:29:00,
2014-01-24 14:34:00,39.8,20.2,30.37,NW,317,0.0,0.0,45,-99.99,,,-99.99,RaspberryPi,2014-01-24 21:34:00,
2014-01-24 14:39:00,39.8,20.2,30.41,WNW,291,0.0,0.0,45,-99.99,,,-99.99,RaspberryPi,2014-01-24 21:39:00,
2014-01-24 14:45:00,41.4,21.7,30.37,NW,305,0.0,0.0,45,-99.99,,,-99.99,RaspberryPi,2014-01-24 21:45:00,
2014-01-24 14:50:00,41.4,21.7,30.37,WNW,302,0.0,0.0,45,-99.99,,,-99.99,RaspberryPi,2014-01-24 21:50:00,
2014-01-24 14:55:00,41.4,21.7,30.41,NW,325,0.0,0.0,45,-99.99,,,-99.99,RaspberryPi,2014-01-24 21:55:00,
2014-01-24 15:01:00,43.0,23.1,30.37,West,280,0.0,0.0,45,-99.99,,,-99.99,RaspberryPi,2014-01-24 22:01:00,
2014-01-24 15:06:00,41.4,21.7,30.37,WNW,298,0.0,0.0,45,-99.99,,,-99.99,RaspberryPi,2014-01-24 22:06:00,
2014-01-24 15:11:00,43.0,23.1,30.41,WNW,300,0.0,0.0,45,-99.99,,,-99.99,RaspberryPi,2014-01-24 22:11:00,
2014-01-24 15:16:00,44.6,24.1,30.34,NNW,336,0.0,0.0,44,-99.99,,,-99.99,RaspberryPi,2014-01-24 22:16:00,
2014-01-24 15:22:00,41.4,21.7,30.37,North,352,0.1,0.0,45,-99.99,,,-99.99,RaspberryPi,2014-01-24 22:22:00,
2014-01-24 15:27:00,43.0,23.1,30.41,WNW,299,0.0,0.0,45,-99.99,,,-99.99,RaspberryPi,2014-01-24 22:27:00,
2014-01-24 15:32:00,43.0,22.6,30.41,NW,319,0.0,0.0,44,-99.99,,,-99.99,RaspberryPi,2014-01-24 22:32:00,
2014-01-24 15:38:00,41.4,21.7,30.37,WNW,297,0.0,0.0,45,-99.99,,,-99.99,RaspberryPi,2014-01-24 22:38:00,
2014-01-24 15:43:00,43.0,23.1,30.44,NW,315,0.0,0.0,45,-99.99,,,-99.99,RaspberryPi,2014-01-24 22:43:00,
2014-01-24 15:48:00,41.4,21.7,30.41,NW,326,0.0,0.0,45,-99.99,,,-99.99,RaspberryPi,2014-01-24 22:48:00,
2014-01-24 15:54:00,41.4,21.7,30.44,NW,325,0.0,0.0,45,-99.99,,,-99.99,RaspberryPi,2014-01-24 22:54:00,
2014-01-24 15:59:00,41.4,21.7,30.41,NNW,334,0.0,0.0,45,-99.99,,,-99.99,RaspberryPi,2014-01-24 22:59:00,
2014-01-24 16:04:00,41.4,21.7,30.41,NNW,329,0.0,0.0,45,-99.99,,,-99.99,RaspberryPi,2014-01-24 23:04:00,
2014-01-24 16:10:00,41.4,21.7,30.37,NW,307,0.0,0.0,45,-99.99,,,-99.99,RaspberryPi,2014-01-24 23:10:00,
2014-01-24 16:15:00,41.4,21.7,30.41,WNW,292,0.0,0.0,45,-99.99,,,-99.99,RaspberryPi,2014-01-24 23:15:00,
2014-01-24 16:20:00,39.8,20.2,30.34,NW,318,0.0,0.0,45,-99.99,,,-99.99,RaspberryPi,2014-01-24 23:20:00,
2014-01-24 16:26:00,39.8,20.2,30.34,North,0,0.1,0.0,45,-99.99,,,-99.99,RaspberryPi,2014-01-24 23:26:00,
2014-01-24 16:31:00,39.8,20.2,30.41,WNW,296,1.5,0.0,45,-99.99,,,-99.99,RaspberryPi,2014-01-24 23:31:00,
2014-01-24 16:36:00,38.2,18.7,30.37,NW,321,1.2,0.0,45,-99.99,,,-99.99,RaspberryPi,2014-01-24 23:36:00,
2014-01-24 16:41:00,38.2,19.2,30.34,NW,325,0.8,0.0,46,-99.99,,,-99.99,RaspberryPi,2014-01-24 23:41:00,
2014-01-24 16:47:00,38.2,19.2,30.41,WNW,303,0.0,0.0,46,-99.99,,,-99.99,RaspberryPi,2014-01-24 23:47:00,
2014-01-24 16:52:00,36.6,17.8,30.37,NNW,346,0.0,0.0,46,-99.99,,,-99.99,RaspberryPi,2014-01-24 23:52:00,
2014-01-24 16:57:00,36.6,17.8,30.37,NW,325,0.0,0.0,46,-99.99,,,-99.99,RaspberryPi,2014-01-24 23:57:00,
2014-01-24 17:03:00,33.4,15.3,30.37,WNW,297,0.2,0.0,47,-99.99,,,-99.99,RaspberryPi,2014-01-25 00:03:00,
2014-01-24 17:08:00,30.2,12.8,30.41,NNW,337,0.1,0.0,48,-99.99,,,-99.99,RaspberryPi,2014-01-25 00:08:00,
2014-01-24 17:13:00,30.2,12.8,30.37,NW,313,0.0,0.0,48,-99.99,,,-99.99,RaspberryPi,2014-01-25 00:13:00,
2014-01-24 17:18:00,28.6,11.8,30.34,WNW,302,0.0,0.0,49,-99.99,,,-99.99,RaspberryPi,2014-01-25 00:18:00,
2014-01-24 17:24:00,28.6,12.3,30.41,NW,326,2.6,0.0,50,-99.99,,,-99.99,RaspberryPi,2014-01-25 00:24:00,
2014-01-24 17:29:00,28.6,12.7,30.44,NW,316,2.8,0.0,51,-99.99,,,-99.99,RaspberryPi,2014-01-25 00:29:00,
2014-01-24 17:34:00,28.6,13.2,30.41,WNW,300,2.5,0.0,52,-99.99,,,-99.99,RaspberryPi,2014-01-25 00:34:00,
2014-01-24 17:40:00,28.7,13.8,30.44,West,274,3.2,0.0,53,-99.99,,,-99.99,RaspberryPi,2014-01-25 00:40:00,
2014-01-24 17:45:00,28.7,14.2,30.37,WNW,300,2.8,0.0,54,-99.99,,,-99.99,RaspberryPi,2014-01-25 00:45:00,
2014-01-24 17:51:00,28.6,14.4,30.34,WSW,258,2.6,4.0,55,-99.99,,,-99.99,RaspberryPi,2014-01-25 00:51:00,
2014-01-24 17:56:00,28.7,14.6,30.41,West,280,3.0,0.0,55,-99.99,,,-99.99,RaspberryPi,2014-01-25 00:56:00,
2014-01-24 18:01:00,27.1,13.1,30.41,West,281,3.4,0.0,55,-99.99,,,-99.99,RaspberryPi,2014-01-25 01:01:00,
2014-01-24 18:08:00,28.7,15.8,30.37,West,272,2.7,0.0,58,-99.99,,,-99.99,RaspberryPi,2014-01-25 01:08:00,
2014-01-24 18:14:00,27.1,13.9,30.41,WNW,298,2.9,0.0,57,-99.99,,,-99.99,RaspberryPi,2014-01-25 01:14:00,
2014-01-24 18:19:00,27.1,13.5,30.41,West,273,3.5,0.0,56,-99.99,,,-99.99,RaspberryPi,2014-01-25 01:19:00,
2014-01-24 18:24:00,27.1,13.9,30.37,West,272,3.5,0.0,57,-99.99,,,-99.99,RaspberryPi,2014-01-25 01:24:00,
2014-01-24 18:30:00,27.1,13.9,30.44,WNW,283,2.1,0.0,57,-99.99,,,-99.99,RaspberryPi,2014-01-25 01:30:00,
2014-01-24 18:35:00,27.1,14.3,30.41,WNW,287,3.3,0.0,58,-99.99,,,-99.99,RaspberryPi,2014-01-25 01:35:00,
2014-01-24 18:40:00,27.1,14.3,30.41,West,281,0.0,0.0,58,-99.99,,,-99.99,RaspberryPi,2014-01-25 01:40:00,
2014-01-24 18:45:00,25.5,13.6,30.37,WNW,291,0.0,0.0,60,-99.99,,,-99.99,RaspberryPi,2014-01-25 01:45:00,
2014-01-24 18:53:00,25.5,13.6,30.37,WSW,245,0.0,0.0,60,-99.99,,,-99.99,RaspberryPi,2014-01-25 01:53:00,
2014-01-24 18:58:00,23.9,12.0,30.44,West,269,0.0,0.0,60,-99.99,,,-99.99,RaspberryPi,2014-01-25 01:58:00,
2014-01-24 19:03:00,23.9,12.4,30.41,WSW,240,0.0,0.0,61,-99.99,,,-99.99,RaspberryPi,2014-01-25 02:03:00,
2014-01-24 19:09:00,23.9,13.5,30.37,West,265,0.0,0.0,64,-99.99,,,-99.99,RaspberryPi,2014-01-25 02:09:00,
2014-01-24 19:14:00,25.5,15.7,30.41,NW,314,0.0,0.0,66,-99.99,,,-99.99,RaspberryPi,2014-01-25 02:14:00,
2014-01-24 19:19:00,23.9,13.9,30.41,WSW,237,0.0,0.0,65,-99.99,,,-99.99,RaspberryPi,2014-01-25 02:19:00,
2014-01-24 19:25:00,23.9,14.2,30.41,West,275,0.0,0.0,66,-99.99,,,-99.99,RaspberryPi,2014-01-25 02:25:00,
2014-01-24 19:30:00,23.9,14.2,30.41,NW,307,0.0,0.0,66,-99.99,,,-99.99,RaspberryPi,2014-01-25 02:30:00,
2014-01-24 19:35:00,23.9,14.5,30.41,WNW,286,0.0,0.0,67,-99.99,,,-99.99,RaspberryPi,2014-01-25 02:35:00,
2014-01-24 19:40:00,23.9,14.2,30.41,NW,310,0.5,0.0,66,-99.99,,,-99.99,RaspberryPi,2014-01-25 02:40:00,
2014-01-24 19:46:00,23.9,14.2,30.41,WNW,299,2.0,0.0,66,-99.99,,,-99.99,RaspberryPi,2014-01-25 02:46:00,
2014-01-24 19:51:00,23.9,14.5,30.37,WNW,292,1.7,0.0,67,-99.99,,,-99.99,RaspberryPi,2014-01-25 02:51:00,
2014-01-24 19:56:00,23.9,14.2,30.37,WNW,301,2.2,3.6,66,-99.99,,,-99.99,RaspberryPi,2014-01-25 02:56:00,
2014-01-24 20:01:00,22.3,12.7,30.37,WNW,286,2.2,0.0,66,-99.99,,,-99.99,RaspberryPi,2014-01-25 03:01:00,
2014-01-24 20:07:00,23.9,14.5,30.37,WSW,238,2.3,0.0,67,-99.99,,,-99.99,RaspberryPi,2014-01-25 03:07:00,
2014-01-24 20:12:00,23.9,14.2,30.37,West,263,2.7,0.0,66,-99.99,,,-99.99,RaspberryPi,2014-01-25 03:12:00,
2014-01-24 20:17:00,23.9,14.5,30.37,West,270,1.4,0.0,67,-99.99,,,-99.99,RaspberryPi,2014-01-25 03:17:00,
2014-01-24 20:23:00,23.9,14.5,30.37,SW,229,2.0,0.0,67,-99.99,,,-99.99,RaspberryPi,2014-01-25 03:23:00,
2014-01-24 20:28:00,25.5,16.1,30.41,SW,227,0.3,0.0,67,-99.99,,,-99.99,RaspberryPi,2014-01-25 03:28:00,
2014-01-24 20:33:00,25.5,15.7,30.37,WNW,295,0.1,0.0,66,-99.99,,,-99.99,RaspberryPi,2014-01-25 03:33:00,
2014-01-24 20:38:00,25.5,15.0,30.44,West,269,0.1,0.0,64,-99.99,,,-99.99,RaspberryPi,2014-01-25 03:38:00,
2014-01-24 20:44:00,23.9,13.9,30.44,West,266,0.0,0.0,65,-99.99,,,-99.99,RaspberryPi,2014-01-25 03:44:00,
2014-01-24 20:49:00,23.9,13.9,30.41,WNW,299,0.7,0.0,65,-99.99,,,-99.99,RaspberryPi,2014-01-25 03:49:00,
2014-01-24 20:54:00,23.9,13.5,30.41,West,264,0.1,0.0,64,-99.99,,,-99.99,RaspberryPi,2014-01-25 03:54:00,
2014-01-24 21:00:00,23.9,12.4,30.41,NW,312,0.8,0.0,61,-99.99,,,-99.99,RaspberryPi,2014-01-25 04:00:00,
2014-01-24 21:05:00,23.9,13.5,30.37,WNW,293,0.9,0.0,64,-99.99,,,-99.99,RaspberryPi,2014-01-25 04:05:00,
2014-01-24 21:10:00,22.3,11.3,30.34,NW,309,1.4,0.0,62,-99.99,,,-99.99,RaspberryPi,2014-01-25 04:10:00,
2014-01-24 21:16:00,22.3,11.6,30.41,West,265,1.9,0.0,63,-99.99,,,-99.99,RaspberryPi,2014-01-25 04:16:00,
2014-01-24 21:21:00,22.3,12.7,30.41,WSW,243,0.7,0.0,66,-99.99,,,-99.99,RaspberryPi,2014-01-25 04:21:00,
2014-01-24 21:26:00,22.3,12.7,30.37,WNW,297,1.9,0.0,66,-99.99,,,-99.99,RaspberryPi,2014-01-25 04:26:00,
2014-01-24 21:32:00,-999.9,99.9,30.41,West,268,1.9,0.0,67,-99.99,,,-99.99,RaspberryPi,2014-01-25 04:32:00,
2014-01-24 21:37:00,22.3,12.7,30.41,West,264,1.9,0.0,66,-99.99,,,-99.99,RaspberryPi,2014-01-25 04:37:00,
2014-01-24 21:42:00,22.3,13.0,30.41,WNW,286,2.3,0.0,67,-99.99,,,-99.99,RaspberryPi,2014-01-25 04:42:00,
2014-01-24 21:48:00,22.3,13.0,30.41,WNW,296,0.2,0.0,67,-99.99,,,-99.99,RaspberryPi,2014-01-25 04:48:00,
2014-01-24 21:53:00,20.7,11.5,30.41,West,267,0.0,0.0,67,-99.99,,,-99.99,RaspberryPi,2014-01-25 04:53:00,
2014-01-24 21:58:00,20.7,11.1,30.44,WNW,285,0.2,0.0,66,-99.99,,,-99.99,RaspberryPi,2014-01-25 04:58:00,
2014-01-24 22:02:00,20.7,11.1,30.37,West,262,0.2,0.0,66,-99.99,,,-99.99,RaspberryPi,2014-01-25 05:02:00,
2014-01-24 22:03:00,20.7,11.5,30.37,NW,309,0.2,0.0,67,-99.99,,,-99.99,RaspberryPi,2014-01-25 05:03:00,
2014-01-24 22:05:00,20.7,11.1,30.37,WNW,292,0.0,0.0,66,-99.99,,,-99.99,RaspberryPi,2014-01-25 05:05:00,
2014-01-24 22:11:00,20.7,11.5,30.37,NW,305,0.1,0.0,67,-99.99,,,-99.99,RaspberryPi,2014-01-25 05:11:00,
2014-01-24 22:14:00,20.7,11.5,30.41,WNW,286,0.6,0.0,67,-99.99,,,-99.99,RaspberryPi,2014-01-25 05:14:00,
2014-01-24 22:19:00,19.1,9.9,30.41,West,265,0.0,0.0,67,-99.99,,,-99.99,RaspberryPi,2014-01-25 05:19:00,
2014-01-24 22:25:00,20.7,12.1,30.37,WNW,287,2.3,0.0,69,-99.99,,,-99.99,RaspberryPi,2014-01-25 05:25:00,
2014-01-24 22:30:00,20.7,12.1,30.41,WSW,253,0.4,0.0,69,-99.99,,,-99.99,RaspberryPi,2014-01-25 05:30:00,
2014-01-24 22:35:00,20.7,12.5,30.41,WNW,298,0.2,0.0,70,-99.99,,,-99.99,RaspberryPi,2014-01-25 05:35:00,
2014-01-24 22:40:00,20.7,12.5,30.41,NW,305,2.2,0.0,70,-99.99,,,-99.99,RaspberryPi,2014-01-25 05:40:00,
2014-01-24 22:46:00,20.7,12.5,30.41,WNW,288,1.7,0.0,70,-99.99,,,-99.99,RaspberryPi,2014-01-25 05:46:00,
2014-01-24 22:51:00,20.7,13.1,30.41,WSW,251,2.9,0.0,72,-99.99,,,-99.99,RaspberryPi,2014-01-25 05:51:00,
2014-01-24 22:57:00,20.7,13.1,30.34,WSW,246,2.3,0.0,72,-99.99,,,-99.99,RaspberryPi,2014-01-25 05:57:00,
2014-01-24 23:02:00,20.7,13.1,30.41,WNW,293,2.4,0.0,72,-99.99,,,-99.99,RaspberryPi,2014-01-25 06:02:00,
2014-01-24 23:07:00,20.7,13.1,30.41,West,260,1.7,0.0,72,-99.99,,,-99.99,RaspberryPi,2014-01-25 06:07:00,
2014-01-24 23:12:00,20.7,13.1,30.44,WNW,301,0.5,0.0,72,-99.99,,,-99.99,RaspberryPi,2014-01-25 06:12:00,
2014-01-24 23:18:00,20.7,13.4,30.41,West,268,0.0,0.0,73,-99.99,,,-99.99,RaspberryPi,2014-01-25 06:18:00,
2014-01-24 23:23:00,20.7,13.4,30.41,West,271,1.3,0.0,73,-99.99,,,-99.99,RaspberryPi,2014-01-25 06:23:00,
2014-01-24 23:29:00,20.7,13.4,30.41,WNW,292,0.4,0.0,73,-99.99,,,-99.99,RaspberryPi,2014-01-25 06:29:00,
2014-01-24 23:34:00,20.7,13.4,30.37,WSW,237,1.1,0.0,73,-99.99,,,-99.99,RaspberryPi,2014-01-25 06:34:00,
2014-01-24 23:39:00,20.7,13.4,30.41,NW,306,0.4,0.0,73,-99.99,,,-99.99,RaspberryPi,2014-01-25 06:39:00,
2014-01-24 23:44:00,19.1,11.9,30.41,WNW,285,1.7,3.0,73,-99.99,,,-99.99,RaspberryPi,2014-01-25 06:44:00,
2014-01-24 23:50:00,19.1,11.9,30.37,WNW,283,0.4,0.0,73,-99.99,,,-99.99,RaspberryPi,2014-01-25 06:50:00,
2014-01-24 23:55:00,19.1,12.2,30.37,WSW,243,1.2,0.0,74,-99.99,,,-99.99,RaspberryPi,2014-01-25 06:55:00,